Location: Tierra del Sol
(32.6128°N, 116.3319°W)
Time: 07:23:28
(UTC-07:00)

Vanguard 2 - Pass Details

Date: 02 May 2018
Orbit: 554 x 2938 km, 32.9° (Epoch: 19 September)

Event Time Altitude Azimuth Distance (km) Brightness Sun altitude
Rises 22:13:22 0° 272° (W) 6,325 12.8 -30.0°
Reaches altitude 10° 22:18:02 10° 273° (W) 5,022 12.1 -30.7°
Maximum altitude 22:31:34 89° 360° (N) 1,633 8.9 -32.5°
Enters shadow 22:33:21 65° 94° (E) 1,646 8.8 -32.7°
Drops below altitude 10° 22:39:24 10° 96° (E) 3,047 - -33.5°
Sets 22:41:35 0° 96° (E) 3,772 - -33.8°
